Regional Weather Roundup
Issued by NWS Boston, MA

Current Version | Previous Version | Text Only | Print | Product List | Glossary Off
Versions: 1 2 3 4 5 6 7 8 9 10 11 12 13 14 15 16 17 18 19 20 21 22 23 24 25 26 27 28 29 30 31 32 33 34 35 36 37 38 39 40 41 42 43 44 45 46 47 48 49 50

000
ASUS41 KBOX 180810
RWRBOX

REGIONAL WEATHER ROUNDUP
NATIONAL WEATHER SERVICE TAUNTON MA
400 AM EDT THU SEP 18 2014

NOTE:  "FAIR" INDICATES FEW OR NO CLOUDS BELOW 12,000 FEET WITH NO
SIGNIFICANT WEATHER AND/OR OBSTRUCTIONS TO VISIBILITY.  THE FOLLOWING
OBSERVATION LOCATIONS DO NOT REPORT PRESENT WEATHER...PROVINCETOWN...
SMITHFIELD...BLOCK ISLAND...KEENE...AND OXFORD.

MAZALL-180900-
EASTERN MASSACHUSETTS

CITY           SKY/WX    TMP DP  RH WIND       PRES   REMARKS
BOSTON         CLEAR     56  47  71 W7        29.93F
BEVERLY        CLEAR     47  44  90 CALM      29.92S
LAWRENCE       CLEAR     47  45  93 S3        29.95S
BEDFORD        CLEAR     42  41  96 CALM      29.93S
BLUE HILL        N/A     53  44  71 W12       29.93S
NORWOOD        PTCLDY    39  36  89 CALM      29.94S
MARSHFIELD     NOT AVBL
PLYMOUTH       CLEAR     43  40  89 CALM      29.94F
TAUNTON        CLEAR     40  38  93 CALM      29.94S FOG
NEW BEDFORD    CLEAR     44  42  93 CALM      29.93S FOG
$$

MAZALL-180900-
CAPE COD AND THE ISLANDS

CITY           SKY/WX    TMP DP  RH WIND       PRES   REMARKS
FALMOUTH       CLEAR     45  43  93 CALM      29.94R
HYANNIS        CLEAR     45  41  86 CALM      29.92S
CHATHAM        CLEAR     52  47  83 W3        29.94S
PROVINCETOWN   CLEAR     57  52  82 W8        29.93S
NANTUCKET      CLEAR     51  48  89 CALM      29.93S
MARTHAS VNYRD  CLEAR     38  37  97 CALM      29.94S
$$

MAZALL-180900-
CENTRAL AND WESTERN MASSACHUSETTS

CITY           SKY/WX    TMP DP  RH WIND       PRES   REMARKS
WORCESTER      CLEAR     51  43  74 W8        29.95F
FITCHBURG      CLEAR     47  43  86 N5        29.96S
ORANGE         FOG       42  41  96 CALM      29.96S VSB 1/4
SPRINGFIELD    CLEAR     41  41 100 NE2       29.96R FOG
WESTFIELD      FOG       43  42  97 CALM      29.96S VSB 1/2
NORTH ADAMS    FOG       43  43 100 CALM      29.98S VSB 3/4
PITTSFIELD     FOG       41  41 100 CALM      29.96S VSB 1/4
$$

RIZALL-180900-
RHODE ISLAND

CITY           SKY/WX    TMP DP  RH WIND       PRES   REMARKS
PROVIDENCE     CLEAR     50  46  86 W5        29.96R
NEWPORT        CLEAR     52  48  86 CALM      29.94S
BLOCK ISLAND   CLEAR     55  52  88 NW5       29.95R
SMITHFIELD     CLEAR     43  36  75 CALM      29.94S
WESTERLY       CLEAR     46  44  93 CALM      29.96S
$$

CTZALL-180900-
CONNECTICUT

CITY           SKY/WX    TMP DP  RH WIND       PRES   REMARKS
BRADLEY INTL   CLEAR     46  43  89 W3        29.96R
HARTFORD       CLEAR     48  45  89 CALM      29.96S
BRIDGEPORT     CLEAR     53  49  86 CALM      29.96S
DANBURY        CLEAR     44  42  93 CALM      29.98S
GROTON         CLEAR     48  47  96 N3        29.95S
NEW HAVEN      MOCLDY    49  45  86 CALM      29.96S
CHESTER        FAIR      54  48  82 CALM      29.96S
MERIDEN        CLOUDY    46  44  93 CALM      29.97R
WILLIMANTIC    MOCLDY    44  42  93 CALM      29.97S
OXFORD         MOCLDY    46  43  87 CALM      29.98S
$$

MEZ002-015-021-024-NHZ003-005-008-011-012-014-VTZ005-008-180900-
NORTHERN NEW ENGLAND

CITY           SKY/WX    TMP DP  RH WIND       PRES   REMARKS
PORTLAND ME    CLEAR     47  45  93 CALM      29.91S
BANGOR ME      FOG       49  48  97 S3        29.88F VSB 1/4
CONCORD NH     CLOUDY    39  39 100 CALM      29.94R FOG
MANCHESTER NH  PTCLDY    47  41  80 CALM      29.92F
NASHUA NH      CLEAR     44  43  97 CALM      29.94F
PORTSMOUTH NH  CLEAR     47  46  93 NW2       29.91F
JAFFREY NH     CLEAR     40  39  97 S5        29.95F
KEENE NH       CLOUDY    43  36  75 CALM      29.97R VSB 1/4
BURLINGTON VT  CLOUDY    56  45  66 S8        29.92S
MT. WASHINGTON FOG       34  34 100 NW39        N/A  VSB 0   WCI  18
$$

NYZ052-076-180900-
EASTERN NEW YORK

CITY           SKY/WX    TMP DP  RH WIND       PRES   REMARKS
ALBANY         PTCLDY    49  45  86 S6        29.97S
NEW YORK CITY  CLEAR     62  52  69 SW5       29.95S
$$

ANZALL-180900-
MARINE OBSERVATIONS

STATION/POSITION TIME  TEMP    WIND        PRES    VSBY  WAVE
                       AIR SEA DIR/SP/G                  HT/PER
                 (UTC) (F)     (DEG/KT/KT) (MB)    (MI)  (FT/S)
BOSTON BUOY      0750   59 61  260/  8/ 10 1013.6F         2/14
BUZZARDS BAY     0700          290/  2/  3 1014.5F
NANTUCKET SOUND  0750   66 67  290/  4/  4 1013.4F         1/14
MASS BAY-STELLWA 0704   59 61  270/ 10/ 12   N/A    1 7/8
ISLE OF SHOALS   0700   57     280/ 11/ 11 1012.6F
S OF BLOCK IS    0708      67                N/A           5/14
$$

......................KEY.........................
  SKY/WX - SKY CONDITION/PRESENT WEATHER
  TMP    - TEMPERATURE IN FAHRENHEIT
  DWPT   - DEWPOINT IN FAHRENHEIT
  RH     - RELATIVE HUMIDITY IN PERCENT
  WIND   - DIRECTION AND SPEED IN MPH
  PRES   - MEAN SEA LEVEL PRESSURE IN INCHES OF HG
  WCI    - WIND CHILL INDEX
  VSB    - VISIBILITY IN MILES
  HX     - HEAT INDEX
  TC     - TEMPERATURE IN CELSIUS
  VRB    - VARIABLE WIND DIRECTION
  N/A    - NOT AVAILABLE



USA.gov is the U.S. government's official web portal to all federal, state and local government web resources and services.